Snowfall_Accumulation
6.5 5.8 2.2 2.7 0.8 0.8 0.9 1.4 0.5 1.2 0.0 0.0 0.0 0.0 0.0 0.0 0.0 0.0 0.0 0.0 0.0 0.0 0.0 0.0 0.0 0.0 0.0 0.0 0.0 0.0 0.0 0.0 0.0 0.0 0.0 0.0 0.0 0.0 0.0 0.0 0.0 0.0 0.0
13.4 11.2 9.8 9.1 11.4 6.2 5.9 3.9 5.1 4.9 2.1 1.7 1.9 1.7 0.0 0.0 0.0 0.0 0.0 0.0 0.0 0.0 0.0 0.0 0.0 0.0 0.0 0.0 0.0 0.0 0.0 0.0 0.0 0.0 0.0 0.0 0.0 0.0 0.0 0.0 0.0 0.0 0.0
7.4 11.8 8.0 7.5 10.3 14.3 11.5 10.1 7.9 6.6 5.3 4.7 3.5 2.5 1.3 0.0 0.0 0.0 0.0 0.0 0.0 0.0 0.0 0.0 0.0 0.0 0.0 0.0 0.0 0.0 0.0 0.0 0.1 0.3 0.1 0.0 0.0 0.0 0.0 0.0 0.0 0.0 0.0
4.3 4.1 9.1 10.2 1.7 5.2 10.4 7.7 5.6 4.9 5.8 6.6 7.3 6.3 4.1 0.0 0.0 0.0 0.0 0.0 0.0 0.0 0.0 0.0 0.0 0.0 0.0 0.0 0.0 0.0 0.0 0.1 0.1 0.1 0.0 0.0 0.0 0.0 0.3 0.2 0.2 0.0 0.1
3.4 2.8 2.2 3.5 2.4 0.8 0.9 1.9 1.6 1.4 2.6 7.4 6.3 4.7 3.4 1.6 0.5 0.1 0.0 0.0 0.0 0.0 0.0 0.0 0.0 0.0 0.0 0.0 0.1 0.0 0.1 0.2 0.4 0.5 0.2 0.3 0.2 0.1 0.1 0.2 0.5 0.2 0.1
0.4 0.9 0.9 0.6 0.6 0.6 0.3 0.3 0.1 0.0 0.0 0.5 0.3 0.0 0.6 0.2 0.0 0.0 0.0 0.0 0.0 0.0 0.0 0.0 0.0 0.0 0.1 0.1 0.0 0.1 0.2 0.8 1.3 1.0 0.5 0.6 0.1 0.4 0.5 0.8 1.1 1.1 1.0
0.1 0.0 0.0 0.2 0.1 0.1 0.1 0.0 0.1 0.2 0.0 0.0 0.0 0.0 0.0 0.0 0.0 0.0 0.0 0.0 0.0 0.0 0.0 0.0 0.0 0.0 0.0 0.0 0.0 0.0 0.1 0.2 0.9 1.4 1.6 1.0 1.0 0.7 0.7 1.0 0.9 2.1 1.7
0.0 0.0 0.2 0.0 0.0 0.0 0.0 0.0 0.0 0.0 0.0 0.0 0.0 0.0 0.0 0.0 0.0 0.0 0.0 0.0 0.0 0.0 0.0 0.0 0.0 0.0 0.0 0.0 0.8 0.6 0.2 0.1 0.1 0.2 0.5 0.6 0.5 0.5 0.7 0.9 2.5 2.0 0.6
1.9 1.7 1.6 0.5 0.2 0.3 0.0 0.0 0.0 0.0 0.0 0.0 0.0 0.0 0.0 0.0 0.0 0.0 0.0 0.0 0.0 0.0 0.0 0.0 0.0 0.0 0.0 0.7 1.0 1.1 0.5 0.2 0.1 0.0 0.2 0.6 0.2 0.3 0.4 2.8 3.7 4.1 3.7
4.0 7.5 2.0 2.2 1.0 4.1 4.7 1.9 3.5 0.1 0.4 0.0 0.1 0.1 0.0 0.0 0.0 0.0 0.0 0.1 0.1 0.1 0.1 0.1 0.0 0.3 1.0 1.3 2.4 2.2 2.0 0.6 1.1 1.1 2.1 1.8 1.4 1.0 2.4 2.1 3.5 5.7 3.9
3.9 6.9 1.5 5.7 1.5 5.6 7.6 5.7 5.1 3.0 5.0 4.2 0.1 2.9 2.9 0.1 0.0 0.0 0.0 0.1 0.5 1.6 0.2 0.2 0.3 2.0 1.5 1.3 0.6 1.0 2.5 1.3 0.8 0.5 1.5 1.5 2.3 2.0 2.0 2.0 3.0 4.0 4.3
3.2 3.2 4.4 4.8 5.2 4.1 3.8 6.2 9.4 9.6 6.0 5.8 3.0 4.8 2.4 2.8 2.8 2.8 3.2 4.0 6.3 4.6 5.9 5.0 4.5 3.5 0.5 0.3 3.1 2.1 3.8 4.4 3.1 3.5 3.8 6.1 7.6 8.6 7.5 8.3 7.7 7.7 7.6
1.2 1.0 2.4 2.3 3.4 3.6 3.6 4.2 3.8 4.1 3.9 4.7 4.9 3.3 5.7 6.4 7.0 8.0 8.9 7.9 6.9 7.7 7.4 9.5 6.2 8.9 4.2 4.3 4.2 4.1 2.9 6.2 14.3 16.1 17.3 15.6 16.0 15.1 14.2 13.2 11.5 12.0 11.5
0.1 0.3 0.4 0.6 0.9 1.3 1.8 2.4 3.3 3.9 2.8 3.1 2.6 2.7 2.6 2.5 2.9 3.2 3.4 6.0 6.5 8.1 7.7 8.3 12.2 10.9 11.9 14.6 13.9 23.1 22.9 25.8 27.6 28.7 27.2 23.3 24.6 21.1 16.9 15.3 12.8 11.0 10.8
0.0 0.1 0.1 0.0 0.1 0.1 0.6 1.0 1.4 2.7 2.4 2.7 3.2 3.2 3.1 5.7 7.2 5.8 6.8 4.5 4.7 8.0 8.7 11.8 16.7 12.9 16.8 17.4 16.1 17.1 18.9 19.2 19.1 19.5 18.8 17.8 15.9 15.2 14.0 13.4 13.8 11.3 10.8
0.0 0.0 0.2 0.4 0.1 0.0 0.0 0.2 0.2 0.6 0.6 2.1 0.8 2.6 7.9 11.1 11.9 13.8 14.0 14.1 15.8 14.7 17.5 17.8 18.2 17.7 16.6 15.1 14.2 12.7 10.8 10.3 10.4 9.9 10.3 8.2 9.4 9.1 8.2 6.8 6.4 7.3 7.8
0.0 0.1 0.1 0.1 0.2 1.9 0.1 0.1 2.9 5.4 6.2 8.5 9.4 12.0 11.6 12.9 11.7 11.0 10.7 10.3 10.1 9.1 10.8 9.7 9.2 8.7 7.6 6.3 6.6 6.3 7.0 6.1 4.2 4.7 5.5 5.2 5.1 4.7 4.7 4.8 4.8 4.7 4.6
0.2 0.4 0.6 3.9 6.7 7.2 4.0 5.4 6.6 6.8 10.7 13.2 13.4 12.4 11.2 9.7 8.6 7.8 6.6 6.1 6.6 5.2 5.3 5.1 5.1 4.0 2.4 2.3 2.6 2.5 2.4 2.2 1.9 2.7 3.4 3.4 3.8 4.0 3.7 3.5 3.6 3.8 3.4
0.5 1.0 8.0 9.3 10.0 8.9 8.9 8.7 8.6 8.2 7.6 7.8 6.7 6.8 6.6 5.5 5.0 4.9 4.3 4.9 4.8 4.4 3.4 2.9 2.5 2.1 1.7 0.8 1.4 1.5 1.8 1.9 1.7 2.3 2.2 2.5 2.7 3.3 3.0 2.8 2.9 2.9 2.9
4.4 6.3 6.0 6.7 7.6 7.5 7.3 6.9 6.9 6.4 6.4 6.1 5.6 6.3 5.5 3.8 4.0 3.7 3.2 3.4 3.3 2.7 2.3 1.9 1.4 1.1 1.5 1.9 2.1 2.2 2.0 1.4 1.4 1.4 1.8 2.0 2.1 2.9 3.4 2.7 2.2 3.3 2.6
8.0 8.4 7.6 7.2 7.6 7.3 6.6 6.0 5.5 5.0 4.8 4.2 4.9 4.9 3.6 3.3 4.0 3.0 2.2 1.8 1.7 1.7 1.7 1.7 1.9 2.2 2.1 1.9 1.8 1.7 1.5 1.4 1.3 1.7 1.7 1.8 2.2 2.2 2.0 1.8 2.0 1.7 1.6
6.9 6.9 6.2 6.0 5.7 5.5 5.2 4.7 4.8 4.5 4.3 3.9 3.0 2.2 1.1 2.0 1.8 1.2 1.2 1.9 2.0 2.2 2.7 2.7 2.2 1.8 1.6 1.9 1.8 1.8 1.6 1.4 1.4 1.6 1.6 1.3 1.0 1.6 1.7 1.6 1.4 1.2 1.7
4.6 4.5 4.0 3.7 3.5 2.8 2.9 3.0 3.1 2.5 2.3 1.7 1.9 2.2 1.6 1.6 1.8 1.3 2.1 1.4 1.9 1.4 0.8 1.1 1.4 1.0 1.0 1.4 1.7 1.9 1.6 1.2 1.3 1.7 2.0 1.8 1.6 1.4 1.9 1.8 1.6 1.8 1.6
2.4 2.6 2.6 1.9 2.3 1.8 1.7 1.4 1.3 0.9 2.1 2.5 2.2 1.3 1.8 1.7 2.3 2.0 1.7 1.0 0.7 0.9 1.3 1.7 1.5 1.2 1.0 1.2 1.4 1.6 1.5 1.1 1.9 2.0 2.0 2.1 1.4 1.0 1.4 1.5 1.5 1.5 1.4
1.2 1.4 1.3 1.6 1.7 2.4 2.2 2.1 2.6 2.3 2.3 2.2 2.3 1.7 1.1 0.9 1.1 1.1 1.2 1.3 1.1 0.9 1.1 0.9 1.4 1.8 1.5 1.7 1.8 1.5 1.6 2.2 2.4 2.1 3.1 2.1 1.4 1.2 1.3 1.4 1.3 1.7 1.5
1.0 1.6 1.7 1.8 2.0 2.3 3.0 2.9 2.3 2.0 1.8 1.5 1.8 1.7 1.7 1.4 1.3 1.5 1.4 1.2 1.8 1.1 1.2 1.4 1.2 1.1 1.2 1.3 1.5 1.9 1.8 1.9 3.0 2.9 3.7 3.2 2.2 1.7 1.6 1.8 1.6 1.9 1.3